Weather History for KCWI - November, 2013

Change the Weather History Date:

Thursday, November 7, 2013

  Actual Average Record
Temperature  
Mean Temperature 33 °F -  
Max Temperature 42 °F 51 °F 73 °F (1966)
Min Temperature 24 °F 33 °F 7 °F (1991)
Degree Days  
Heating Degree Days 32    
Moisture  
Dew Point 25 °F    
Average Humidity 78    
Maximum Humidity 86    
Minimum Humidity 57    
Precipitation  
Precipitation 0.00 in - - ()
Sea Level Pressure  
Sea Level Pressure 30.27 in    
Wind  
Wind Speed 7 mph (West)    
Max Wind Speed 20 mph    
Max Gust Speed 23 mph    
Visibility 10 miles    
Events      
Averages and records for this station are not official NWS values.
T = Trace of Precipitation, MM = Missing Value Source: NWS Daily Summary

Daily Weather History Graph

Daily Weather History Graph

Search for Another Location

Airport or City:

Trip Planner

Search our weather history database for the weather conditions in past years. The results will help you decide how hot, cold, wet, or windy it might be!

Date:

Astronomy

Nov. 07, 2013 Rise Set
Actual Time 6:41 AM CST 4:48 PM CST
Civil Twilight 6:11 AM CST 5:17 PM CST
Nautical Twilight 5:38 AM CST 5:50 PM CST
Astronomical Twilight 5:06 AM CST 6:23 PM CST
Moon 10:50 AM CST (11/7) 8:59 PM CST (11/7)
Length of Visible Light 11h 05m
Length of Day
10h 06m
Waxing Crescent, 23% of the Moon is Illuminated
Nov 7
Waxing Crescent
Nov 9
First Quarter
Nov 17
Full
Nov 25
Last Quarter
Dec 2
New

Hourly Weather History & Observations

Time (CST) Temp. Windchill Dew Point Humidity Pressure Visibility Wind Dir Wind Speed Gust Speed Precip Events Conditions
12:15 AM 28.4 °F 21.2 °F 23.0 °F 80% 30.26 in 10.0 mi WNW 6.9 mph - N/A   Clear
12:35 AM 28.4 °F 21.2 °F 23.0 °F 80% 30.25 in 10.0 mi WNW 6.9 mph - N/A   Clear
12:55 AM 28.4 °F 21.2 °F 23.0 °F 80% 30.26 in 10.0 mi WNW 6.9 mph - N/A   Clear
1:15 AM 28.4 °F 22.2 °F 21.2 °F 74% 30.26 in 10.0 mi WNW 5.8 mph - N/A   Clear
1:35 AM 28.4 °F 22.2 °F 21.2 °F 74% 30.26 in 10.0 mi WNW 5.8 mph - N/A   Clear
1:55 AM 26.6 °F - 21.2 °F 80% 30.26 in 10.0 mi Calm Calm - N/A   Clear
2:15 AM 26.6 °F 20.0 °F 21.2 °F 80% 30.26 in 10.0 mi West 5.8 mph - N/A   Clear
2:35 AM 26.6 °F 20.0 °F 21.2 °F 80% 30.26 in 10.0 mi West 5.8 mph - N/A   Clear
2:55 AM 26.6 °F 20.0 °F 21.2 °F 80% 30.26 in 10.0 mi West 5.8 mph - N/A   Clear
3:15 AM 26.6 °F 21.2 °F 21.2 °F 80% 30.26 in 10.0 mi WSW 4.6 mph - N/A   Clear
3:35 AM 24.8 °F 19.1 °F 21.2 °F 86% 30.26 in 10.0 mi West 4.6 mph - N/A   Clear
3:55 AM 26.6 °F 20.0 °F 21.2 °F 80% 30.26 in 10.0 mi West 5.8 mph - N/A   Clear
4:15 AM 26.6 °F 20.0 °F 21.2 °F 80% 30.26 in 10.0 mi West 5.8 mph - N/A   Clear
4:35 AM 24.8 °F 19.1 °F 21.2 °F 86% 30.26 in 10.0 mi West 4.6 mph - N/A   Clear
4:55 AM 26.6 °F 21.2 °F 21.2 °F 80% 30.26 in 10.0 mi West 4.6 mph - N/A   Clear
5:15 AM 26.6 °F 20.0 °F 21.2 °F 80% 30.26 in 10.0 mi SW 5.8 mph - N/A   Clear
5:35 AM 24.8 °F 19.1 °F 21.2 °F 86% 30.26 in 10.0 mi SW 4.6 mph - N/A   Clear
5:55 AM 24.8 °F 19.1 °F 19.4 °F 80% 30.26 in 10.0 mi SW 4.6 mph - N/A   Clear
6:15 AM 24.8 °F 17.9 °F 19.4 °F 80% 30.26 in 10.0 mi SW 5.8 mph - N/A   Clear
6:35 AM 24.8 °F 16.9 °F 19.4 °F 80% 30.26 in 10.0 mi SW 6.9 mph - N/A   Clear
6:55 AM 24.8 °F 17.9 °F 19.4 °F 80% 30.26 in 10.0 mi SW 5.8 mph - N/A   Clear
7:15 AM 24.8 °F 19.1 °F 19.4 °F 80% 30.26 in 10.0 mi SW 4.6 mph - N/A   Clear
7:35 AM 26.6 °F 20.0 °F 23.0 °F 86% 30.27 in 10.0 mi SW 5.8 mph - N/A   Scattered Clouds
7:55 AM 28.4 °F 24.6 °F 24.8 °F 86% 30.27 in 10.0 mi SW 3.5 mph - N/A   Mostly Cloudy
8:15 AM 30.2 °F 25.4 °F 24.8 °F 80% 30.27 in 10.0 mi SW 4.6 mph - N/A   Mostly Cloudy
8:35 AM 30.2 °F 25.4 °F 26.6 °F 86% 30.27 in 10.0 mi SW 4.6 mph - N/A   Overcast
8:55 AM 32.0 °F 27.5 °F 26.6 °F 80% 30.27 in 10.0 mi WSW 4.6 mph - N/A   Overcast
9:15 AM 33.8 °F 28.6 °F 28.4 °F 81% 30.27 in 10.0 mi West 5.8 mph - N/A   Overcast
9:35 AM 35.6 °F 27.5 °F 28.4 °F 75% 30.27 in 10.0 mi West 11.5 mph - N/A   Overcast
9:55 AM 35.6 °F 27.1 °F 28.4 °F 75% 30.27 in 10.0 mi West 12.7 mph 17.3 mph N/A   Overcast
10:15 AM 35.6 °F 27.1 °F 28.4 °F 75% 30.27 in 10.0 mi WNW 12.7 mph - N/A   Overcast
10:35 AM 35.6 °F 26.6 °F 28.4 °F 75% 30.28 in 10.0 mi West 13.8 mph - N/A   Overcast
10:55 AM 33.8 °F 23.5 °F 28.4 °F 81% 30.28 in 10.0 mi WNW 16.1 mph - N/A   Overcast
11:15 AM 33.8 °F 22.5 °F 28.4 °F 81% 30.28 in 10.0 mi WNW 19.6 mph 23.0 mph N/A   Overcast
11:35 AM 33.8 °F 24.3 °F 28.4 °F 81% 30.28 in 10.0 mi WNW 13.8 mph - N/A   Overcast
11:55 AM 33.8 °F 22.8 °F 28.4 °F 81% 30.28 in 10.0 mi WNW 18.4 mph - N/A   Overcast
12:15 PM 35.6 °F 25.5 °F 28.4 °F 75% 30.27 in 10.0 mi NW 17.3 mph - N/A   Overcast
12:35 PM 35.6 °F 25.5 °F 28.4 °F 75% 30.27 in 10.0 mi WNW 17.3 mph 21.9 mph N/A   Overcast
12:55 PM 35.6 °F 25.2 °F 28.4 °F 75% 30.27 in 10.0 mi WNW 18.4 mph - N/A   Overcast
1:15 PM 35.6 °F 28.0 °F 28.4 °F 75% 30.28 in 10.0 mi WNW 10.4 mph - N/A   Overcast
1:35 PM 37.4 °F 28.9 °F 30.2 °F 75% 30.27 in 10.0 mi NW 13.8 mph 18.4 mph N/A   Overcast
1:55 PM 37.4 °F 29.8 °F 28.4 °F 70% 30.27 in 10.0 mi NW 11.5 mph 16.1 mph N/A   Scattered Clouds
2:15 PM 39.2 °F 33.0 °F 30.2 °F 70% 30.26 in 10.0 mi WNW 9.2 mph - N/A   Clear
2:35 PM 41.0 °F 33.9 °F 30.2 °F 65% 30.26 in 10.0 mi WNW 12.7 mph - N/A   Clear
2:55 PM 41.0 °F 35.8 °F 28.4 °F 61% 30.26 in 10.0 mi West 8.1 mph - N/A   Clear
3:15 PM 42.8 °F 36.6 °F 28.4 °F 57% 30.26 in 10.0 mi West 11.5 mph - N/A   Clear
3:35 PM 42.8 °F 36.6 °F 30.2 °F 61% 30.26 in 10.0 mi West 11.5 mph - N/A   Clear
3:55 PM 42.8 °F 37.0 °F 30.2 °F 61% 30.26 in 10.0 mi West 10.4 mph - N/A   Clear
4:15 PM 41.0 °F 35.8 °F 30.2 °F 65% 30.27 in 10.0 mi West 8.1 mph - N/A   Clear
4:35 PM 39.2 °F 33.6 °F 28.4 °F 65% 30.27 in 10.0 mi West 8.1 mph - N/A   Clear
4:55 PM 37.4 °F 32.1 °F 28.4 °F 70% 30.27 in 10.0 mi West 6.9 mph - N/A   Clear
5:15 PM 35.6 °F 30.7 °F 28.4 °F 75% 30.26 in 10.0 mi WSW 5.8 mph - N/A   Clear
5:35 PM 35.6 °F 29.9 °F 28.4 °F 75% 30.27 in 10.0 mi WSW 6.9 mph - N/A   Clear
5:55 PM 33.8 °F 28.6 °F 26.6 °F 75% 30.27 in 10.0 mi WSW 5.8 mph - N/A   Clear
6:15 PM 33.8 °F 27.7 °F 26.6 °F 75% 30.27 in 10.0 mi WSW 6.9 mph - N/A   Clear
6:35 PM 32.0 °F 26.4 °F 26.6 °F 80% 30.27 in 10.0 mi WSW 5.8 mph - N/A   Clear
6:55 PM 32.0 °F 24.8 °F 26.6 °F 80% 30.27 in 10.0 mi WSW 8.1 mph - N/A   Clear
7:15 PM 32.0 °F 24.2 °F 26.6 °F 80% 30.27 in 10.0 mi West 9.2 mph - N/A   Clear
7:35 PM 32.0 °F 24.2 °F 26.6 °F 80% 30.27 in 10.0 mi West 9.2 mph - N/A   Clear
7:55 PM 33.8 °F 26.4 °F 26.6 °F 75% 30.27 in 10.0 mi West 9.2 mph - N/A   Clear
8:15 PM 32.0 °F 25.6 °F 26.6 °F 80% 30.27 in 10.0 mi West 6.9 mph - N/A   Clear
8:35 PM 30.2 °F 23.4 °F 26.6 °F 86% 30.28 in 10.0 mi WNW 6.9 mph - N/A   Clear
8:55 PM 30.2 °F 24.3 °F 24.8 °F 80% 30.28 in 10.0 mi WNW 5.8 mph - N/A   Clear
9:15 PM 30.2 °F 24.3 °F 24.8 °F 80% 30.28 in 10.0 mi West 5.8 mph - N/A   Clear
9:35 PM 30.2 °F 24.3 °F 24.8 °F 80% 30.28 in 10.0 mi West 5.8 mph - N/A   Clear
9:55 PM 28.4 °F 24.6 °F 24.8 °F 86% 30.29 in 10.0 mi WNW 3.5 mph - N/A   Clear
10:15 PM 28.4 °F 24.6 °F 24.8 °F 86% 30.29 in 10.0 mi NNW 3.5 mph - N/A   Clear
10:35 PM 28.4 °F 22.2 °F 23.0 °F 80% 30.29 in 10.0 mi NW 5.8 mph - N/A   Clear
10:55 PM 28.4 °F 22.2 °F 24.8 °F 86% 30.29 in 10.0 mi WNW 5.8 mph - N/A   Clear
11:15 PM 28.4 °F 21.2 °F 23.0 °F 80% 30.29 in 10.0 mi WNW 6.9 mph - N/A   Clear
11:35 PM 28.4 °F 21.2 °F 23.0 °F 80% 30.29 in 10.0 mi WNW 6.9 mph - N/A   Clear
11:55 PM 28.4 °F 21.2 °F 23.0 °F 80% 30.30 in 10.0 mi WNW 6.9 mph - N/A   Clear